Regional Weather Roundup
Issued by NWS New Orleans/Baton Rouge, LA

Home | Current Version | Previous Version | Graphics & Text | Print | Product List | Glossary On
Versions: 1 2 3 4 5 6 7 8 9 10 11 12 13 14 15 16 17 18 19 20 21 22 23 24 25 26 27 28 29 30 31 32 33 34 35 36 37 38 39 40 41 42 43 44 45 46 47 48 49 50
773
ASUS44 KLIX 270205
RWRLIX
NEW ORLEANS REGIONAL WEATHER ROUNDUP
NATIONAL WEATHER SERVICE NEW ORLEANS LA
800 PM CST WED NOV 26 2014

NOTE: "FAIR" INDICATES FEW OR NO CLOUDS BELOW 12,000 FEET WITH NO
      SIGNIFICANT WEATHER AND/OR OBSTRUCTIONS TO VISIBILITY.
      SKY/WX - SKY CONDITION AND SIGNIFICANT WEATHER.
      TMP - AIR TEMPERATURE.     DP    - DEWPOINT TEMPERATURE.
      RH  - RELATIVE HUMIDITY.   PRES  - PRESSURE.
      HI  - HEAT INDEX.          WCI   - WIND CHILL INDEX.

*  THESE STATIONS ARE NOT NWS OR FAA STATIONS AND ARE NOT UNDER
   NWS QUALITY CONTROL.

LAZ038-040-048-061>063-065>067-069-270300-
SOUTHEAST LOUISIANA

CITY           SKY/WX    TMP DP  RH WIND       PRES   REMARKS
N.O. AUDUBON     N/A     56  47  73 MISG        N/A
N.O. INTL ARPT CLEAR     56  43  61 SW8       30.23R
N.O. LAKEFRONT CLEAR     59  44  57 SW15      30.23R
N.O. DOWNTOWN*   N/A     59  41  51 SW6       30.24R
SLIDELL        CLEAR     60  45  57 SW8       30.20R
BATON ROUGE    CLEAR     57  41  55 SW10      30.22R
BOOTHVILLE     CLEAR     61  48  62 W12       30.25R
BELLE CHASSE   CLEAR     54  42  64 SW7       30.23R
BOGALUSA*        N/A     55  40  57 SW7       30.20R
NEW ROADS*       N/A     55  42  62 SW6       30.21S
GONZALES*        N/A     56  47  71 SW3       30.23R
HAMMOND*       CLEAR     59  39  47 W7        30.22R
HOUMA*         CLEAR     56  49  76 SW7       30.24S
PORT FOURCHON* CLEAR     63  52  67 W8G15     30.29R

$$

MSZ070-080>082-270300-
SOUTHERN MISSISSIPPI

CITY           SKY/WX    TMP DP  RH WIND       PRES   REMARKS
MCCOMB         CLEAR     57  39  51 SW5       30.18R
GULFPORT       CLEAR     58  44  60 VRB7      30.20R
BILOXI         CLEAR     58  47  68 SW12G21   30.20R
PASCAGOULA     CLEAR     57  44  62 SW6       30.20R

$$

COASTAL OBSERVATIONS
LAKE AND NEARSHORE STATIONS

STATION/POSITION TIME  TEMP    WIND        PRES    WAVE
                       AIR SEA DIR/SP/G            HT/PER
                 (UTC) (F)     (DEG/KT/KT) (MB)    (FT/S)
PASCAGOULA       0200   60     240/ 16/ 23 1021.9
WAVELAND YACHT   0200   58     240/  6/ 11 1021.8
GRAND ISLE       0200   60 60  240/  7/  9 1024.8
SOUTHWEST PASS   0200   65                 1025.0
NEW CANAL        0200   59 54  220/  7/ 10 1023.9
SHELL BEACH      0200   57 53  240/ 10/ 11 1023.4

OFFSHORE STATIONS

STATION/POSITION TIME  TEMP    WIND        PRES    WAVE
                       AIR SEA DIR/SP/G            HT/PER
                 (UTC) (F)     (DEG/KT/KT) (MB)    (FT/S)
64 S DAUPHIN ISL 0123   64 70  260/ 19/ 21 1024.9    3/ 4

$$




USA.gov is the U.S. government's official web portal to all federal, state and local government web resources and services.